Overview Statistics Trail Chart Weather Telemetry Raw packets
 

This is the latest recevied weather packets stored in our database for station/object KO4ZGL-13. If no packets are shown the sender has not sent any weather packets the latest 10 day(s).

<< 43 44 45 46 47 48 49 >>
Time Temp. Humidity Pressure Rain* Wind** Luminosity Snow
1788358301 29.44° C 84% 1019.3 hPa 0 mm - 361 W/m² -
1788357997 29.44° C 86% 1019.2 hPa 0 mm - 289 W/m² -
1788357692 28.89° C 86% 1019.5 hPa 0 mm - 324 W/m² -
1788357391 28.89° C 87% 1019.3 hPa 0 mm - 324 W/m² -
1788357086 28.89° C 90% 1019.2 hPa 0 mm - 293 W/m² -
1788356781 28.33° C 93% 1019.1 hPa 0 mm - 213 W/m² -
1788356476 27.78° C 95% 1019.3 hPa 0 mm - 302 W/m² -
1788356175 27.22° C 97% 1019.3 hPa 0 mm - 305 W/m² -
1788355870 26.67° C 98% 1019.3 hPa 0 mm - 271 W/m² -
1788355566 26.67° C 99% 1019.4 hPa 0 mm - 254 W/m² -
1788355261 26.67° C 99% 1019.6 hPa 0 mm - 207 W/m² -
1788354957 26.11° C 99% 1019.5 hPa 0 mm - 200 W/m² -
1788354652 26.11° C 99% 1019.7 hPa 0 mm - 190 W/m² -
1788354348 25.56° C 99% 1019.7 hPa 0 mm - 211 W/m² -
1788354043 25.56° C 99% 1019.5 hPa 0 mm - 197 W/m² -
1788353739 25.56° C 99% 1019.6 hPa 0 mm - 176 W/m² -
1788353434 25° C 99% 1019.6 hPa 0 mm - 152 W/m² -
1788353130 25° C 99% 1019.4 hPa 0 mm - 132 W/m² -
1788352825 24.44° C 99% 1019.4 hPa 0 mm - 94 W/m² -
1788352520 23.89° C 99% 1019.4 hPa 0 mm - 58 W/m² -
1788352220 23.33° C 99% 1019.7 hPa 0 mm - 62 W/m² -
1788351915 23.33° C 99% 1019.5 hPa 0 mm - 51 W/m² -
1788351610 23.33° C 99% 1019.4 hPa 0 mm - 47 W/m² -
1788351305 23.33° C 99% 1019.5 hPa 0 mm - 47 W/m² -
1788351000 22.78° C 99% 1019.6 hPa 0 mm - 41 W/m² -

* Rain latest hour (hover to see other rain measurements)
** Current wind speed in m/s (hover to see current wind gust speed)